Location: Czekanka
(50.4925°N, 19.2643°E)
Time: 06:20:42
(UTC+00:00)

SL-16 R/B - Pass Details

Date: 25 September 2024
Orbit: 842 x 846 km, 71.0° (Epoch: 05 October)

Event Time Altitude Azimuth Distance (km) Brightness Sun altitude
Rises 22:57:07 0° 326° (NW) 3,412 5.9 -40.6°
Reaches altitude 10° 23:01:59 10° 3° (N) 2,474 5.3 -40.5°
Maximum altitude 23:03:22 11° 17° (NNE) 2,415 5.2 -40.5°
Drops below altitude 10° 23:04:45 10° 31° (NNE) 2,472 5.2 -40.4°
Sets 23:09:35 0° 68° (ENE) 3,405 5.7 -40.3°
